AirNav   Air Wisconsin pilot careers
 
 619 users online  

KNRS Imperial Beach Naval Outlying Field (Ream Field)
Imperial Beach, California, USA

GOING TO IMPERIAL BEACH?


FAA INFORMATION EFFECTIVE 16 AUGUST 2018

Location

FAA Identifier: NRS
Lat/Long: 32-33-58.1638N / 117-06-48.6837W
32-33.969397N / 117-06.811395W
32.5661566 / -117.1135233
(estimated)
Elevation: 23.6 ft. / 7.2 m (surveyed)
Variation: 11E (2020)
From city: 1 mile S of IMPERIAL BEACH, CA
Time zone: UTC -7 (UTC -8 during Standard Time)
Zip code: 91932

Airport Operations

Airport use: Private use. Permission required prior to landing
Activation date: 02/1944
Control tower: yes
ARTCC: LOS ANGELES CENTER
FSS: SAN DIEGO FLIGHT SERVICE STATION
FSS-SAN DIEGO SAN-NOTAM NRS
NOTAMs facility: SAN (NOTAM-D service available)
Attendance: 
OPR 1600-0630Z MON-THU (1500-0600Z DT) AND 1600-0200Z++ FRI. CLSD FR 0200Z++ DAY PRIOR TIL 1600Z++ DAY FLW GOVT HOL; EXC PRE-COORD FLT OF OPR NECESSITY. CTC NOLF ATC DSN 577-9414/9415 FOR OPR INQUIRIES.
Segmented circle: no
Lights: AVBL ONLY DURING HRS OF OPERATION.
Beacon: white-white-green (lighted military airport)
Operates sunset to sunrise.

Airport Communications

ATIS: 276.2
WX ASOS: PHONE 619-437-9890
IMPERIAL BEACH GROUND: 285.575 [1600-0630Z MON-THU (1500-0600Z DT) AND 1600-0200Z++ FRI. CLSD FR 0200Z++ DAY PRIOR TIL 1600Z++ DAY FLW GOVT HOL.]
IMPERIAL BEACH TOWER: 120.65 239.25 [1600-0630Z MON-THU (1500-0600Z DT) AND 1600-0200Z++ FRI. CLSD FR 0200Z++ DAY PRIOR TIL 1600Z++ DAY FLW GOVT HOL.]
SOCAL APPROACH: 125.15
SOCAL DEPARTURE: 125.15
EMERG: 243.0
RADAR: 318.8
WX ASOS at SDM (7 nm E): 132.35 (619-661-8297)
WX ASOS at SAN (11 nm N): PHONE 619-296-8934
WX ASOS at MYF (15 nm N): 126.9 (858-576-4337)
WX AWOS-3P at SEE (17 nm NE): 125.45 (619-449-1228)
  • ATCT/GCA/ATIS OPR PUBLISHED HRS EXC PRE-COORD FLT OF OPR NECESSITY.
  • FOR CLNC DEL WHEN ATCT CLSD CALL SOCAL APCH (800) 448-3724.
  • ILS/RADAR - RADAR - SEE TERMINAL FLIP FOR RADAR MINIMA.

Nearby radio navigation aids

VOR radial/distance  VOR name  Freq  Var
PGYr235/7.3POGGI VORTAC109.8014E
TIJr267/8.2TIJUANA VOR/DME116.5014E
MZBr141/14.1MISSION BAY VORTAC117.8015E

Airport Services

Runway Information

Runway 8/26

Dimensions: 2240 x 151 ft. / 683 x 46 m
Surface: concrete
Weight bearing capacity: 
PCN 6 /R/C/W/T
RUNWAY 8  RUNWAY 26
Latitude: 32-34.018072N32-33.921433N
Longitude: 117-06.827898W117-06.406738W
Elevation: 23.5 ft.21.2 ft.
Traffic pattern: leftleft
Touchdown point: yes, no lightsyes, no lights

Runway 9/27

Dimensions: 4997 x 336 ft. / 1523 x 102 m
Surface: PEM
Weight bearing capacity: 
PCN 8 /F/A/W/T
Runway edge lights: high intensity
RUNWAY 9  RUNWAY 27
Latitude: 32-34.076683N32-33.861790N
Longitude: 117-07.368155W117-06.428677W
Elevation: 8.2 ft.19.8 ft.
Traffic pattern: leftleft
Touchdown point: yes, no lightsyes, no lights

Airport Ownership and Management from official FAA records

Ownership: U.S. Navy
Owner: US NAVY
OCEANOGRAPHIC OFC - CODE 3142
WASHINGTON, DC 20373

Additional Remarks

RSTD - OFFL BUS ONLY - PPR F/W AND NON-TENANT ACFT, CTC NASNI ODO DSN 735-8233/8234, C619-545-8233/8234. NORTH ISLAND TENANT ACFT AND COAST GUARD HAVE PRIORITY FOR LCL PAT OPR.
CAUTION: EXTV COPTER TRNG.
MISC: RWY 08-26 AVBL FOR DAY AND NGT COPTER USE ONLY (NGT AND SVFR USE AT PILOTS OWN RISK).
FUEL: J5 (AVAILABLE 1100-2100 MON-THU; 1000-1800 FRI).

Instrument Procedures

NOTE: All procedures below are presented as PDF files. If you need a reader for these files, you should download the free Adobe Reader.

NOT FOR NAVIGATION. Please procure official charts for flight.
FAA instrument procedures published for use from 16 August 2018 at 0901Z to 13 September 2018 at 0900Z.

 
IAPs - Instrument Approach Procedures
COPTER TACAN RWY 27   download (94KB)
NOTE: Special Take-Off Minimums/Departure Procedures apply   download (174KB)

Other nearby airports with instrument procedures:

KSDM - Brown Field Municipal Airport (7 nm E)
KNZY - North Island Naval Air Station (Halsey Field) (9 nm NW)
KSAN - San Diego International Airport (11 nm N)
KMYF - Montgomery-Gibbs Executive Airport (15 nm N)
KSEE - Gillespie Field Airport (17 nm NE)
KNKX - Miramar MCAS (Joe Foss Field) Airport (18 nm N)
 
Loc | Ops | Rwys | IFR | FBO | Links
Com | Nav | Svcs | Stats | Notes


 
Area around KNRS (Imperial Beach Naval Outlying Field (Ream Field))
 
Road maps at: MapQuest Bing Google
 
Aerial photo
WARNING: Photo may not be current or correct
Aerial photo of KNRS (Imperial Beach Naval Outlying Field (Ream Field))
Taken in November 2008

Do you have a better or more recent aerial photo of Imperial Beach Naval Outlying Field (Ream Field) that you would like to share? If so, please send us your photo.

 
Sectional chart

 
Airport distance calculator
Flying to Imperial Beach Naval Outlying Field (Ream Field)? Find the distance to fly.

From to KNRS

Sunrise and sunset
Times for 20-Aug-2018
 Local
(UTC-7)
 Zulu
(UTC)
Morning civil twilight05:5112:51
Sunrise06:1613:16
Sunset19:2702:27
Evening civil twilight19:5302:53

Current date and time
Zulu (UTC)  21-Aug-2018 04:58:28
Local (UTC-7)  20-Aug-2018 21:58:28
 
METAR
KNRS 210356Z 24003KT 9SM OVC016 22/17 A2993 RMK AO2 SLP134 T02220172
KSDM 
6nm E 
210453Z AUTO 29003KT 9SM FEW016 21/18 A2995 RMK AO2 SLP137 T02060178 TSNO
MMTJ 
8nm E 
210444Z 00000KT 6SM SCT016 21/18 A2997 RMK 8/500 HZY
KNZY 
10nm NW 
210452Z 20003KT 9SM OVC017 22/18 A2994 RMK AO2 SLP137 T02220178
KSAN 
11nm N 
210451Z 20006KT 10SM OVC017 23/18 A2996 RMK AO2 SLP144 T02280178
KMYF 
15nm N 
210453Z AUTO 19005KT 8SM OVC014 22/18 A2995 RMK AO2 SLP138 T02170178 TSNO
KSEE 
17nm NE 
210435Z AUTO 23003KT 10SM 22/18 A2994 RMK AO2
KNKX 
18nm N 
210355Z 22003KT 9SM SCT014 22/17 A2993 RMK AO2 SLP129 T02220172
TAF
MMTJ 
8nm E 
201628Z 2018/2124 27005KT 5SM HZ SCT020 TX27/2022Z TN20/2112Z FM201900 25010KT 6SM HZ SCT220 BECMG 2102/2103 28005KT FM210600 00000KT 5SM HZ BKN015 BECMG 2109/2110 3SM BR HZ OVC010 FM211600 00000KT 5SM HZ BKN015 BECMG 2118/2119 SCT020 FM212100 27012KT 6SM HZ SCT220
KNZY 
10nm NW 
2023/2123 24008KT 9999 FEW025 BKN250 QNH2985INS BECMG 2103/2105 VRB05KT 9999 BKN025 BKN250 QNH2987INS FM212000 25009KT 9999 FEW025 SCT250 QNH2988INS T20/2112Z T25/2121Z FS30022
KSAN 
11nm N 
210253Z 2103/2206 22006KT P6SM BKN020 FM210500 VRB04KT P6SM OVC018 FM211900 22008KT P6SM SCT018 SCT200 FM220400 VRB04KT P6SM OVC016
KNKX 
18nm N 
2103/2203 VRB05KT 9999 BKN250 QNH2989ADDSINS BECMG 2104/2106 VRB05KT 9999 OVC012 QNH2991INS BECMG 2116/2118 26008KT 9999 SCT030 QNH2992INS T21/2113Z T30/2121Z
NOTAMs
Click for the latest NOTAMs
NOTAMs are issued by the DoD/FAA and will open in a separate window not controlled by AirNav.

 

 
 

Would you like to see your business listed on this page?

 If your business provides an interesting product or service to pilots, flight crews, aircraft, or users of the Imperial Beach Naval Outlying Field (Ream Field), you should consider listing it here.  To start the listing process, click on the button below
 
Add a business
 

Other Pages about Imperial Beach Naval Outlying Field (Ream Field)

Update a link
 
Copyright © AirNav, LLC. All rights reserved. Privacy Policy  Contact